sat.trackr.live / text

‹ back to catalog

STARLINK-4061

NORAD 53247 · 2022-086F

PAYLOAD ACTIVE UNKNOWN

§ Identity

Operator
Country
US
Launch date
2022-07-24
Launch site
AFETR
Launch vehicle
Mass (kg)
RCS (m²)

Purposes: comms

External: N2YO · Heavens-Above · Gunter

§ Orbital elements

Epoch: 2026-09-19T23:08:02.698368Z

Period
93.79 min
Inclination
53.1629°
Eccentricity
0.0001028
Mean motion
15.35398379 rev/d
Perigee alt
459.0 km
Apogee alt
460.4 km
Semi-major
6,837.9 km
B*
3.2960e-5
RAAN
38.4247°
Arg perigee
80.8220°
Mean anomaly
279.2899°
Rev number
23,075

§ Raw data

STARLINK-40611 53247U 22086F   26262.96392012  .00000769  00000+0  32960-4 0  99942 53247  53.1629  38.4247 0001028  80.8220 279.2899 15.35398379230754

JSON: /api/v1/satellites/53247 · /tle

For live sub-satellite position, see the globe view (requires WebGL).

§ Visibility from observer

Set your observer location to see the next 7 days of passes ≥ 10°. The values pass through the URL so the page stays shareable.

No JS? Fill the form by hand. The geolocation button needs JavaScript.